Location: Le Vaud
(46.4779°N, 6.2346°E)
Time: 10:27:05
(UTC+00:00)

Cosmos 1400 Rocket - Pass Details

Date: 18 February 2020
Orbit: 522 x 568 km, 81.2° (Epoch: 29 March)

Event Time Altitude Azimuth Distance (km) Brightness Sun altitude
Rises 05:46:00 0° 193° (SSW) 2,694 6.3 -9.1°
Reaches altitude 10° 05:48:08 10° 195° (SSW) 1,814 5.4 -8.7°
Maximum altitude 05:52:08 76° 282° (WNW) 576 2.8 -8.0°
Drops below altitude 10° 05:56:14 10° 8° (N) 1,857 5.5 -7.3°
Sets 05:58:27 0° 10° (N) 2,764 6.4 -6.9°
